Location: Unspecified
(0.0000°N, 0.0000°E)
Time: 14:17:01
(UTC+00:00)

Vanguard 1 Rocket - Pass Details

Date: 26 March 2018
Orbit: 654 x 4223 km, 34.3° (Epoch: 21 April)

Event Time Altitude Azimuth Distance (km) Brightness Sun altitude
Rises 10:00:51 0° 229° (SW) 5,870 11.3 58.7°
Reaches altitude 10° 10:05:34 10° 227° (SW) 4,276 10.7 59.9°
Maximum altitude 10:15:31 64° 147° (SSE) 1,243 9.5 62.4°
Drops below altitude 10° 10:21:00 10° 66° (ENE) 2,425 10.2 63.7°
Sets 10:23:00 0° 62° (ENE) 3,188 10.5 64.2°
